Погода в Ярцево

Россия / Смоленская область     55°04′07″N   32°41′22″E
темп.,
°C
ветер,
м/с
пор.,
м/с
влажн.,
%
обл.,
%
осадки,
мм/ч
давл.,
гПа
погр.,
м
14 мая, пт
пт1400:00+7юв26975 0.0 1014141
03:00+6юв299790 0.0 1014202
06:00+9юв31192100 0.0 1013343
09:00+10юв41187100 0.0 1013469
12:00+15юв4866100 0.0 1012856
15:00+20юв475319 0.0 10101617
18:00+17вюв487953 1.4 1008668
21:00+14вюв41095100 7.4 1007347
15 мая, сб
сб1500:00+12в3899100 0.3 1007217
03:00+12вюв3597100 0.3 1007256
06:00+11ююв289877 0.0 1007266
09:00+16ю488484 0.0 1007659
12:00+19ю466239 0.4 10071498
15:00+17ююз47827 2.7 1006942
18:00+15ю48877 1.9 1006669
21:00+13ю4119641 3.8 1007387
16 мая, вс
вс1600:00+12ююз5129535 2.0 1007491
03:00+11ююз41098100 2.1 1008380
06:00+11ю3998100 0.1 1009368
09:00+14ююз489397 0.6 1010590
12:00+14юз3690100 0.1 1012710
15:00+17юз357299 0.1 10121045
18:00+17ююз357711 0.3 1012659
21:00+13ю2294100 0.4 101318
17 мая, пн
пн1700:00+12ю119554 0.0 101313
03:00+10вюв2296100 0.0 101337
06:00+11вюв2594100 0.0 1012127
09:00+17вюв3674100 0.0 1012440
12:00+21всв466397 0.0 1009885
15:00+24в5106012 0.0 10061641
18:00+23юв61363100 0.4 10031402
21:00+17ю5139097 3.1 1004687
18 мая, вт
вт1800:00+14ююз379887 2.3 1005323
03:00+11зюз3898100 2.3 1007348
06:00+11юз1398100 0.0 1008142
09:00+15зюз2387100 0.0 1009548
12:00+17зюз2376100 0.2 1010818
15:00+18з2363100 0.3 10091136
18:00+18зсз33638 0.0 1009978
21:00+12сз11820 0.0 101010